Regional Weather Roundup
Issued by NWS

Home | Current Version | Previous Version | Text Only | Print | Product List | Glossary On
Versions: 1 2 3 4 5 6 7 8 9 10 11 12 13 14 15 16 17 18 19 20 21 22 23 24 25 26 27 28
000
ASCA42 TJSJ 251610
RWRPR
PUERTO RICO/U.S. VIRGIN ISLANDS HOURLY WEATHER ROUNDUP
NATIONAL WEATHER SERVICE SAN JUAN PR
1200 PM AST SUN JUN 25 2017

PRZ001>002-007>008-010-251700-
PUERTO RICO

CITY           SKY/WX    TMP DP  RH WIND       PRES   REMARKS
SAN JUAN LMM   MOSUNNY   88  75  66 E18       30.09S HX  97
AGUADILLA      MOSUNNY   86  75  70 E16       30.10S HX  95
CEIBA          MOSUNNY   88  77  70 E15       30.12S HX 100
$$

VIZ001>002-251700-
U.S. VIRGIN ISLANDS

CITY           SKY/WX    TMP DP  RH WIND       PRES   REMARKS
CHARLOTTE AMA  PTSUNNY   93  75  55 E18G28    30.08S HX 104
CHRISTIANSTED  MOSUNNY   88  75  66 E22G29    30.09S HX  97
$$

HOURLY WEATHER ROUNDUP FOR THE NEWS MEDIA

CITY           SKY/WX    TMP DP  RH WIND       PRES   REMARKS
ORLANDO        CLOUDY    87  77  72 S5        30.14R HX  99
NEW YORK       PTSUNNY   79  60  52 S12       30.00S
NEWARK         PTSUNNY   81  56  42 VRB7      29.98S
CHICAGO        MOSUNNY   68  46  45 W18G25    30.10S
HARTFORD       SUNNY     80  55  42 W5        29.94F
BOSTON         MOSUNNY   80  51  36 W10       29.93F
DALLAS         MOSUNNY   81  64  56 E13       30.22R
PHILADELPHIA   PTSUNNY   82  57  42 SW10      30.00F
LOS ANGELES    MOSUNNY   70  62  76 SW5       29.91S
WASHINGTON DC  PTSUNNY   80  59  48 W12       30.05S



USA.gov is the U.S. government's official web portal to all federal, state and local government web resources and services.